Regional Weather Roundup
Issued by NWS Little Rock, AR

Home | Current Version | Previous Version | Text Only | Print | Product List | Glossary Off
Versions: 1 2 3 4 5 6 7 8 9 10 11 12 13 14 15 16 17 18 19 20 21 22 23 24 25 26 27 28 29 30 31 32 33 34 35 36 37 38 39 40 41 42 43 44 45 46 47 48 49 50

000
ASUS44 KLZK 292305
RWRLZK

WEATHER ROUNDUP FOR ARKANSAS
NATIONAL WEATHER SERVICE LITTLE ROCK AR
500 PM CST THU JAN 29 2015

NOTE: "FAIR" INDICATES FEW OR NO CLOUDS BELOW 12,000 FEET WITH NO
SIGNIFICANT WEATHER AND/OR OBSTRUCTIONS TO VISIBILITY.

ARZ001-003-010-029-300000-
NORTHWEST ARKANSAS

CITY           SKY/WX    TMP DP  RH WIND       PRES   REMARKS
FAYETTEVILLE   PTCLDY    43  30  60 NW14G22   30.38R
FORT SMITH     PTCLDY    48  29  47 N15       30.40R
HARRISON       CLOUDY    41  29  62 NW12      30.35R
BENTONVILLE    PTCLDY    45  27  49 N9G20     30.39R
ROGERS         CLEAR     43  27  53 N9G17     30.39R
SILOAM SPGS    CLEAR     45  27  49 N16       30.41R
HIGHFILL       PTCLDY    44  28  53 N18G24    30.38R
SPRINGDALE     PTCLDY    45  28  53 NW12G23   30.40R
$$

ARZ004-005-016-300000-
NORTH CENTRAL ARKANSAS

CITY           SKY/WX    TMP DP  RH WIND       PRES   REMARKS
BATESVILLE     CLOUDY    45  30  57 NW12G26   30.32R
FLIPPIN        CLOUDY    43  28  56 NW12G21   30.36R
MTN HOME       CLOUDY    41  29  62 NW9       30.34R
$$

ARZ040-041-300000-
WEST CENTRAL ARKANSAS

CITY           SKY/WX    TMP DP  RH WIND       PRES   REMARKS
MENA           CLOUDY    50  34  53 N9        30.34R
MOUNT IDA      CLOUDY    49  34  56 NW12G21   30.31R
$$

ARZ009-017-025-026-028-300000-
NORTHEAST ARKANSAS

CITY           SKY/WX    TMP DP  RH WIND       PRES   REMARKS
CORNING        CLOUDY    45  32  61 NW16      30.31R
JONESBORO      CLOUDY    44  34  67 NW9       30.30R
NEWPORT        CLOUDY    46  35  65 NW15      30.33R
WALNUT RIDGE   CLOUDY    45  30  57 NW18G26   30.32R
BLYTHEVILLE    CLOUDY    45  36  70 N21       30.28R
$$

ARZ022-023-033-042-044-300000-
CENTRAL ARKANSAS

CITY           SKY/WX    TMP DP  RH WIND       PRES   REMARKS
LITTLE ROCK    CLOUDY    51  34  52 N17G23    30.31R
N LITTLE ROCK  MOCLDY    48  38  67 N12G22    30.31R
JACKSONVILLE   CLOUDY    49  35  59 N15G23    30.31R
SEARCY         CLOUDY    46  33  60 N14G20    30.32R
HOT SPRINGS    CLOUDY    53  37  54 NW13G21   30.30R
RUSSELLVILLE   PTCLDY    50  32  50 N14G22    30.34R
CLINTON        CLOUDY    45  32  61 NW12G22   30.36R
$$

ARZ036-300000-
EAST ARKANSAS

CITY           SKY/WX    TMP DP  RH WIND       PRES   REMARKS
WEST MEMPHIS   CLOUDY    49  39  68 N12G24    30.26R HAZE
$$

ARZ050-053-066-070-073-300000-
SOUTHWEST ARKANSAS

CITY           SKY/WX    TMP DP  RH WIND       PRES   REMARKS
ARKADELPHIA    FAIR      58  40  51 NW12      30.29R
CAMDEN         MOCLDY    64  36  34 MISG      30.24R
TEXARKANA      CLEAR     62  40  44 N12G22    30.26R
EL DORADO      CLEAR     66  39  37 NW13      30.22R
DE QUEEN       MOCLDY    53  35  50 N13       30.31R
$$

ARZ056-057-069-300000-
SOUTHEAST ARKANSAS

CITY           SKY/WX    TMP DP  RH WIND       PRES   REMARKS
PINE BLUFF     CLOUDY    57  40  52 N15G23    30.25R
STUTTGART      CLOUDY    54  39  58 N18G25    30.27R
MONTICELLO     CLOUDY    66  42  41 NW8       30.20R

$$





USA.gov is the U.S. government's official web portal to all federal, state and local government web resources and services.